This is the latest recevied weather packets stored in our database for station/object N3WXO-1. If no packets are shown the sender has not sent any weather packets the latest 10 day(s).
| Time | Temp. | Humidity | Pressure | Rain* | Wind** | Luminosity | Snow |
|---|---|---|---|---|---|---|---|
| 1777728325 | 8.89° C | 78% | 1013.8 hPa | 0 mm | - | 436 W/m² | - |
| 1777728020 | 8.89° C | 80% | 1013.8 hPa | 0 mm | - | 434 W/m² | - |
| 1777727736 | 8.89° C | 80% | 1013.9 hPa | 0 mm | - | 339 W/m² | - |
| 1777727430 | 8.33° C | 80% | 1013.9 hPa | 0 mm | - | 153 W/m² | - |
| 1777727128 | 8.33° C | 80% | 1013.9 hPa | 0 mm | - | 339 W/m² | - |
| 1777726827 | 8.33° C | 81% | 1013.8 hPa | 0 mm | - | 139 W/m² | - |
| 1777726522 | 8.33° C | 83% | 1013.8 hPa | 0 mm | - | 371 W/m² | - |
| 1777726218 | 7.78° C | 84% | 1013.9 hPa | 0 mm | - | 441 W/m² | - |
| 1777725933 | 7.78° C | 85% | 1013.9 hPa | 0 mm | - | 163 W/m² | - |
| 1777725629 | 7.22° C | 85% | 1013.8 hPa | 0 mm | - | 132 W/m² | - |
| 1777725325 | 7.22° C | 85% | 1013.9 hPa | 0 mm | - | 107 W/m² | - |
| 1777725020 | 7.22° C | 86% | 1013.8 hPa | 0 mm | - | 91 W/m² | - |
| 1777724720 | 6.67° C | 85% | 1013.8 hPa | 0 mm | - | 88 W/m² | - |
| 1777724435 | 6.67° C | 86% | 1013.6 hPa | 0 mm | - | 70 W/m² | - |
| 1777724131 | 6.67° C | 87% | 1013.6 hPa | 0 mm | - | 60 W/m² | - |
| 1777723827 | 6.67° C | 87% | 1013.5 hPa | 0 mm | - | 91 W/m² | - |
| 1777723522 | 6.67° C | 88% | 1013.6 hPa | 0 mm | - | 93 W/m² | - |
| 1777723217 | 6.11° C | 88% | 1013.6 hPa | 0 mm | - | 65 W/m² | - |
| 1777722934 | 6.11° C | 88% | 1013.6 hPa | 0 mm | - | 74 W/m² | - |
| 1777722634 | 6.11° C | 89% | 1013.5 hPa | 0 mm | - | 47 W/m² | - |
| 1777722331 | 6.11° C | 90% | 1013.7 hPa | 0 mm | - | 44 W/m² | - |
| 1777722028 | 6.11° C | 90% | 1013.7 hPa | 0 mm | - | 40 W/m² | - |
| 1777721724 | 5.56° C | 90% | 1013.8 hPa | 0 mm | - | 37 W/m² | - |
| 1777721420 | 5.56° C | 91% | 1013.8 hPa | 0 mm | - | 30 W/m² | - |
| 1777721116 | 5.56° C | 91% | 1013.8 hPa | 0 mm | - | 44 W/m² | - |
* Rain latest hour (hover to see other rain measurements)
** Current wind speed in m/s (hover to see current wind gust speed)